"Pseudo-MPEC" for P10NPL6

Created 2019 May 17 15:07:20 UT using Find_Orb

Click here for an explanation of pseudo-MPECs

 
 Astrometry: 
     P10NPL6  C2019 05 10o),ajR9xDB_)sr*;$JAstrometry[Q#Xl+R%vredacted;dcB3F(F51
     P10NPL6  C2019 05 10O64BiXdNb8*4vy8FclickZC$ljhere/xI+bf'P3cY#w!lV@trXX,F51
     P10NPL6  C2019 05 10.WxUkAY71B65for'R!c(4L;l$=8Z7g,IEexplanation8WW62H1EF51

Station data:
(F51) Pan-STARRS 1, Haleakala  (N20.707235 W156.255910)  US/Hawaii.
   Observers N. Primak, A. Schultz, S. Watters, J. Thiel, T. Goggia. Measurer
   PS1 Science Consortium. 1.8-m Ritchey-Chrétien + CCD.

Orbital elements:  P10NPL6
   Perihelion 2019 May 21.717563 +/- 46.5 TT = 17:13:17 (JD 2458625.217563)
Epoch 2019 May 11.0 TT = JDT 2458614.5   Earth MOID: 0.0243   AutoNEOCP
M 350.42863462 +/- 24               (J2000 ecliptic)
n   0.89305426 +/- 0.399            Peri.   18.98500 +/- 70
a   1.06794974 +/- 0.318            Node   220.87412 +/- 51
e   0.0336757 +/- 0.264             Incl.    3.22528 +/- 11
P   1.10/403.10d           H 28.6   G  0.15   U 12.1  SR
q 1.03198577 +/- 0.206    Q 1.10391371 +/- 35.9
From 3 observations 2019 May 10 (52.3 min); mean residual 0".13
Residuals in arcseconds: 
190510 F51  .03-  .16-    190510 F51  .04+  .24+    190510 F51  .01-  .08-    

Ephemerides (geocentric):
Date (UTC) HH   RA              Dec         delta   r     elong  mag " sig PA
---- -- -- --  -------------   -----------  ------ ------ -----  --- ---- ---
2019 05 17 15  15 28 19.736   +17 52 21.07  .02594 1.0320 142.8 22.2  49d 178
2019 05 17 16  15 28 29.166   +17 56 47.75  .02595 1.0320 142.7 22.2  49d 178
2019 05 17 17  15 28 38.593   +18 01 13.96  .02597 1.0320 142.6 22.2  49d 178
2019 05 17 18  15 28 48.019   +18 05 39.71  .02598 1.0320 142.5 22.2  49d 178
2019 05 17 19  15 28 57.442   +18 10 04.99  .02600 1.0320 142.5 22.2  49d 178
2019 05 17 20  15 29 06.863   +18 14 29.81  .02601 1.0320 142.4 22.2  50d 178
2019 05 17 21  15 29 16.282   +18 18 54.17  .02603 1.0320 142.3 22.3  50d 178
2019 05 17 22  15 29 25.699   +18 23 18.05  .02604 1.0320 142.2 22.3  50d 178
2019 05 17 23  15 29 35.114   +18 27 41.48  .02606 1.0320 142.1 22.3  50d 178
2019 05 18 00  15 29 44.527   +18 32 04.43  .02607 1.0320 142.0 22.3  50d 178
2019 05 18 01  15 29 53.937   +18 36 26.92  .02609 1.0320 142.0 22.3  50d 178
2019 05 18 02  15 30 03.345   +18 40 48.93  .02610 1.0320 141.9 22.3  50d 178
2019 05 18 03  15 30 12.751   +18 45 10.48  .02612 1.0320 141.8 22.3  50d 178
2019 05 18 04  15 30 22.155   +18 49 31.56  .02613 1.0320 141.7 22.3  50d 178
2019 05 18 05  15 30 31.556   +18 53 52.18  .02615 1.0320 141.6 22.3  50d 178
2019 05 18 06  15 30 40.955   +18 58 12.32  .02616 1.0320 141.6 22.3  50d 178
2019 05 18 07  15 30 50.351   +19 02 31.98  .02618 1.0320 141.5 22.3  50d 178
2019 05 18 08  15 30 59.745   +19 06 51.18  .02620 1.0320 141.4 22.3  50d 178
2019 05 18 09  15 31 09.136   +19 11 09.91  .02621 1.0320 141.3 22.3  50d 178
2019 05 18 10  15 31 18.525   +19 15 28.16  .02623 1.0320 141.2 22.3  50d 178
2019 05 18 11  15 31 27.911   +19 19 45.94  .02624 1.0320 141.2 22.3  50d 178
2019 05 18 12  15 31 37.295   +19 24 03.25  .02626 1.0320 141.1 22.3  51d 178
2019 05 18 13  15 31 46.676   +19 28 20.08  .02627 1.0320 141.0 22.3  50d   0
2019 05 18 14  15 31 56.055   +19 32 36.44  .02629 1.0320 140.9 22.3  50d   0
2019 05 18 15  15 32 05.431   +19 36 52.32  .02631 1.0320 140.8 22.3  50d   0
2019 05 18 16  15 32 14.804   +19 41 07.73  .02632 1.0320 140.7 22.3  50d   0
2019 05 18 17  15 32 24.174   +19 45 22.66  .02634 1.0320 140.7 22.3  50d   0
2019 05 18 18  15 32 33.542   +19 49 37.12  .02636 1.0320 140.6 22.3  50d   0
2019 05 18 19  15 32 42.907   +19 53 51.10  .02637 1.0320 140.5 22.3  50d   0
2019 05 18 20  15 32 52.269   +19 58 04.60  .02639 1.0320 140.4 22.3  50d   0
2019 05 18 21  15 33 01.628   +20 02 17.62  .02640 1.0320 140.3 22.3  50d   0
2019 05 18 22  15 33 10.985   +20 06 30.17  .02642 1.0320 140.3 22.3  50d   0
2019 05 18 23  15 33 20.338   +20 10 42.24  .02644 1.0320 140.2 22.3  50d   0
2019 05 19 00  15 33 29.689   +20 14 53.83  .02645 1.0320 140.1 22.3  50d   0
2019 05 19 01  15 33 39.037   +20 19 04.94  .02647 1.0320 140.0 22.3  51d   0
2019 05 19 02  15 33 48.381   +20 23 15.58  .02649 1.0320 140.0 22.4  51d   0
2019 05 19 03  15 33 57.723   +20 27 25.73  .02650 1.0320 139.9 22.4  51d   0
2019 05 19 04  15 34 07.061   +20 31 35.40  .02652 1.0320 139.8 22.4  51d   0
2019 05 19 05  15 34 16.397   +20 35 44.59  .02654 1.0320 139.7 22.4  51d   0
2019 05 19 06  15 34 25.729   +20 39 53.31  .02655 1.0320 139.6 22.4  51d   0
2019 05 19 07  15 34 35.058   +20 44 01.54  .02657 1.0320 139.6 22.4  51d   0
2019 05 19 08  15 34 44.384   +20 48 09.29  .02659 1.0320 139.5 22.4  51d   0
2019 05 19 09  15 34 53.707   +20 52 16.56  .02661 1.0320 139.4 22.4  51d   0
2019 05 19 10  15 35 03.027   +20 56 23.35  .02662 1.0320 139.3 22.4  51d   0
2019 05 19 11  15 35 12.343   +21 00 29.65  .02664 1.0320 139.3 22.4  51d   1
2019 05 19 12  15 35 21.657   +21 04 35.47  .02666 1.0320 139.2 22.4  51d   1
2019 05 19 13  15 35 30.966   +21 08 40.82  .02667 1.0320 139.1 22.4  51d   1
2019 05 19 14  15 35 40.273   +21 12 45.67  .02669 1.0320 139.0 22.4  51d   1